Location: Township of Marena
(38.1747°N, 99.6798°W)
Time: 14:30:57
(UTC+00:00)

Geosat - Pass Details

Date: 26 October 2020
Orbit: 763 x 766 km, 108.0° (Epoch: 28 November)

Event Time Altitude Azimuth Distance (km) Brightness Sun altitude
Exits shadow 01:21:10 - 23° (NNE) 2,740 6.6 -19.1°
Reaches altitude 10° 01:22:14 10° 22° (NNE) 2,309 6.3 -19.4°
Maximum altitude 01:27:15 77° 298° (WNW) 789 4.1 -20.3°
Drops below altitude 10° 01:32:15 10° 212° (SSW) 2,296 6.9 -21.3°
Sets 01:34:32 0° 211° (SSW) 3,218 7.6 -21.8°
